Location: Roc des P�zouls
(43.9667°N, 3.5500°E)
Time: 23:23:31
(UTC+00:00)

CZ-4C R/B - Pass Details

Date: 14 November 2019
Orbit: 650 x 1352 km, 63.4° (Epoch: 05 December)

Event Time Altitude Azimuth Distance (km) Brightness Sun altitude
Exits shadow 03:40:02 22° 5° (N) 1,863 4.0 -32.2°
Drops below altitude 10° 03:42:49 10° 25° (NNE) 2,689 5.1 -31.7°
Sets 03:45:58 0° 36° (NE) 3,769 6.1 -31.1°
